Theta_e
324 324 324 324 325 325 325 325 325 325 326 326 326 327 328 328 328 328 328 328 327 328 328 328 329 329 330 330 330 329 326 313 308 305 304 305 319 328 328 332 332 333 332 320 308 304 302 303 303 303 305 306 305 306 309 308 306 301 295 293 289 292 290 293 293 294 294 292 295 296 296 293 293 296 298 298 297 296 296 295 295 296 296 296 297 297 297 297
324 323 324 324 324 324 324 324 325 325 326 325 326 327 327 328 327 328 327 326 327 327 327 328 329 329 330 329 329 327 318 319 306 305 305 317 326 329 330 331 333 332 327 307 305 303 301 302 303 303 302 300 309 304 307 305 305 298 294 292 290 291 292 295 295 294 293 294 295 296 295 293 295 295 297 294 294 294 293 293 293 292 293 294 295 295 295 295
323 323 323 323 323 324 324 324 324 325 325 326 326 327 327 325 325 327 327 326 326 327 328 328 329 329 329 329 328 326 321 317 313 303 307 330 330 331 333 333 334 333 316 311 310 307 302 302 302 302 301 300 302 302 305 303 302 300 294 290 289 293 294 295 296 295 295 295 295 295 295 294 296 296 298 294 292 293 291 290 290 290 290 291 292 293 293 294
323 322 322 322 323 323 323 323 324 324 325 325 326 326 325 324 325 326 326 326 327 327 327 328 329 329 328 328 328 318 319 310 303 306 309 327 333 332 333 334 332 329 317 312 309 305 304 302 302 303 303 301 301 304 300 303 298 300 293 291 292 294 294 295 296 295 295 296 296 294 294 294 295 297 296 294 293 291 292 293 291 290 290 290 291 292 292 292
322 322 322 322 322 322 322 323 324 324 324 325 326 326 324 324 325 325 325 326 326 327 327 328 329 329 327 325 323 321 313 301 302 311 314 329 330 334 334 332 331 322 316 310 310 308 304 301 303 304 302 297 299 299 298 301 302 297 294 294 295 294 294 296 296 295 295 294 294 292 293 294 296 296 295 294 291 288 291 292 292 292 291 291 291 291 291 291
322 321 321 321 321 322 322 322 323 323 324 324 325 326 325 324 324 324 324 325 326 327 327 328 329 328 327 323 317 322 313 295 308 311 326 327 328 330 329 329 329 322 317 311 305 304 305 304 300 297 295 295 294 293 297 299 300 292 291 296 295 295 295 296 296 295 296 294 293 293 296 295 294 295 295 294 291 292 294 293 292 292 292 292 292 291 290 290
321 321 320 320 320 321 320 322 322 323 324 325 325 326 326 326 324 323 324 325 326 327 327 329 328 327 326 322 319 319 305 305 309 311 327 326 327 324 326 324 318 309 307 306 305 304 302 301 300 300 298 295 296 295 299 300 300 293 290 294 297 295 296 296 295 293 293 294 294 296 294 295 293 293 293 292 293 293 293 293 292 292 292 292 290 290 290 290
321 320 319 319 319 319 320 321 321 322 324 324 325 325 326 326 324 323 323 324 326 327 328 328 327 326 326 323 320 312 307 305 306 313 321 324 314 313 316 311 309 309 306 304 303 302 302 300 299 298 296 294 298 296 298 295 297 294 294 296 296 296 296 296 293 293 294 295 294 294 293 293 293 294 293 290 292 293 292 293 292 291 291 290 290 289 289 289
321 320 319 318 318 318 320 321 321 322 323 323 324 325 325 326 324 323 323 324 326 326 327 328 327 324 323 317 313 303 302 311 308 313 311 310 308 306 309 308 308 307 306 305 305 304 303 300 301 300 293 295 298 296 295 294 289 297 296 296 296 297 297 297 296 294 294 296 294 292 292 293 295 296 291 292 292 293 293 292 291 290 289 289 289 289 289 289
321 320 320 318 318 318 319 320 320 322 322 323 324 325 325 325 323 323 323 324 325 326 327 328 327 322 321 312 310 301 306 312 311 312 310 309 306 306 307 308 307 307 305 305 306 304 302 303 303 304 303 299 299 296 296 295 291 297 295 296 295 295 297 296 295 295 294 295 294 293 292 294 295 293 286 292 293 293 292 291 290 290 289 289 289 289 289 289
320 320 319 319 318 318 319 320 320 321 321 323 323 324 325 323 323 323 323 324 325 326 327 328 325 322 316 316 303 297 312 312 309 309 311 310 306 305 306 306 307 307 305 307 306 306 305 306 305 304 303 297 297 295 295 296 297 297 295 293 293 293 296 295 294 294 296 295 294 294 293 293 294 293 290 291 293 293 290 290 289 289 289 289 289 289 289 289
320 320 319 319 318 318 319 318 318 319 321 322 323 323 322 323 322 322 323 323 325 327 328 327 325 316 313 312 303 304 311 310 308 308 312 311 308 308 308 307 306 308 305 304 308 308 306 306 305 301 295 301 293 295 296 297 297 295 294 291 291 293 293 295 293 294 294 293 295 295 291 291 292 290 292 293 293 292 291 289 289 288 288 288 288 288 287 287
319 319 319 319 318 318 318 319 320 320 320 322 323 324 322 322 322 322 323 323 324 327 327 327 323 322 310 303 303 313 310 306 306 310 310 308 309 308 307 309 309 306 307 305 305 307 307 304 303 300 301 298 294 293 297 298 296 295 293 290 291 290 289 293 294 294 294 293 296 293 282 284 289 292 293 293 292 291 290 288 288 288 288 288 287 287 287 287
319 319 318 318 318 318 318 318 318 319 320 322 323 323 324 322 322 323 324 324 326 327 327 327 316 320 311 301 310 312 311 309 309 310 310 309 308 312 311 311 310 305 309 305 306 304 306 303 303 300 303 296 295 301 296 296 295 290 293 290 285 286 284 291 293 292 292 295 295 293 285 283 289 291 293 293 292 290 288 288 288 288 287 287 287 286 286 287
319 318 318 318 317 318 317 317 317 318 320 320 322 323 322 321 322 323 325 325 325 327 325 324 317 312 301 303 311 311 324 311 309 308 311 306 306 310 308 306 307 306 304 306 307 307 304 305 303 298 296 298 299 295 291 291 290 291 288 284 287 284 286 292 293 292 291 295 295 291 284 283 289 291 292 293 292 290 288 287 287 287 286 285 285 285 285 286
318 318 318 317 317 317 317 317 317 318 319 320 321 320 320 321 322 324 326 324 326 325 319 322 324 304 301 299 307 325 313 309 307 311 309 309 307 304 305 304 304 305 304 304 304 302 301 304 298 297 294 295 292 290 288 287 288 289 286 284 285 285 285 290 293 293 293 293 294 290 284 286 288 291 292 291 290 289 287 287 286 285 285 284 284 284 284 285
318 318 317 317 317 317 317 316 316 318 319 320 319 319 321 321 324 325 324 325 318 322 321 311 310 305 301 308 310 306 306 308 312 311 308 309 306 305 303 303 301 300 302 302 302 302 301 298 298 295 295 291 290 289 284 281 281 284 286 284 285 285 284 282 289 291 293 292 289 289 287 286 287 290 291 290 290 288 287 286 286 285 284 284 283 283 283 284
318 318 318 317 317 316 316 316 317 318 320 318 318 319 319 324 323 322 323 319 313 318 319 316 308 306 300 305 302 302 307 306 310 309 307 308 305 303 303 300 299 298 299 299 302 300 300 294 295 291 291 289 287 285 284 281 284 285 284 283 283 283 284 284 285 287 292 290 288 287 286 287 287 288 289 290 288 287 286 286 285 285 284 284 283 283 283 283
318 318 318 317 317 316 315 316 317 318 319 319 322 323 324 321 315 315 305 306 307 300 300 302 299 293 293 301 304 307 309 309 309 307 307 305 306 304 303 303 301 299 297 295 296 298 297 293 293 287 286 286 288 286 284 286 287 286 285 283 283 282 283 284 287 290 290 288 287 286 285 286 286 287 287 288 287 286 286 286 285 285 284 283 283 283 283 284
319 318 318 317 316 316 316 316 317 318 320 315 312 311 300 300 300 305 304 302 301 300 302 302 302 303 303 304 305 308 312 307 303 306 306 305 304 300 300 300 300 298 295 295 295 296 295 289 288 285 284 286 288 290 289 289 288 287 286 286 284 284 285 288 289 290 288 287 285 286 285 284 285 287 287 287 285 285 285 285 284 283 283 282 282 283 282 283
319 318 318 316 316 315 315 316 316 318 318 312 308 296 292 293 294 292 295 298 299 300 302 303 304 303 303 304 306 300 301 301 302 303 303 305 301 300 298 298 295 294 294 296 296 295 293 289 286 287 287 288 289 289 289 290 289 287 286 284 285 285 285 288 288 289 288 287 282 284 285 285 287 287 287 286 285 284 285 284 283 282 282 282 282 282 282 283
318 318 318 317 315 315 315 315 316 318 318 309 305 301 298 300 302 301 298 295 300 303 304 304 302 302 304 304 304 303 301 298 299 301 302 304 301 297 295 295 293 292 292 292 290 288 288 287 289 290 289 290 290 289 288 288 288 287 285 284 282 284 286 289 289 288 288 288 283 283 283 285 286 287 287 285 286 285 285 285 283 282 281 282 282 281 282 283
318 318 318 316 315 315 315 315 316 318 308 304 302 303 303 306 305 305 303 297 296 302 304 302 302 299 302 302 303 304 299 296 294 300 299 300 298 297 295 291 290 292 292 290 291 286 288 286 290 289 289 289 288 289 288 288 288 285 284 283 283 284 284 281 286 286 287 286 283 284 285 286 285 285 285 284 284 283 284 284 283 283 282 281 282 282 281 281
317 317 316 315 315 315 315 315 317 310 304 304 303 302 305 304 304 306 303 296 294 298 302 304 302 302 300 301 303 300 296 296 295 296 300 298 294 296 294 292 291 290 291 290 289 288 289 292 290 290 289 289 289 289 288 286 284 285 286 284 283 284 284 284 283 285 286 287 287 285 283 282 283 282 281 283 284 284 283 283 282 282 282 283 283 282 282 281
317 316 315 315 314 314 314 316 307 304 305 305 302 304 304 305 304 305 300 293 292 297 305 305 306 307 303 308 307 300 297 296 296 297 298 297 294 294 294 295 291 288 290 290 289 288 288 289 291 289 290 290 290 288 287 287 283 283 285 287 287 285 284 283 284 283 280 279 284 284 276 274 280 283 283 281 282 282 282 281 281 282 281 281 281 281 283 284
317 316 315 314 314 314 315 311 306 306 306 303 305 304 302 304 302 302 296 287 284 292 301 297 310 303 308 300 303 300 298 294 297 297 299 298 299 295 295 292 294 290 288 289 289 287 288 290 290 290 289 289 289 286 287 288 283 283 283 286 285 284 284 283 282 281 275 274 283 284 276 275 278 279 280 280 281 281 281 280 281 281 280 280 281 281 281 281
318 316 315 314 314 313 308 304 309 308 306 306 304 304 304 300 303 302 296 287 283 293 296 304 301 301 307 302 299 300 290 291 296 295 297 298 297 300 293 290 292 292 290 289 288 286 288 289 288 288 288 286 285 284 286 288 284 282 284 284 284 283 283 282 282 282 280 282 283 284 280 276 276 279 281 280 280 280 280 280 280 280 280 280 280 281 280 280
317 315 314 313 313 312 302 304 306 304 302 307 305 300 305 303 303 302 292 276 275 300 297 297 304 308 305 299 299 294 295 296 294 295 294 296 297 294 292 289 291 289 290 289 284 288 289 288 287 288 287 284 284 284 287 287 285 283 285 285 283 283 283 282 281 280 280 278 276 279 282 277 275 278 282 280 277 277 279 279 279 279 280 280 280 281 280 281
316 315 313 313 313 314 306 304 305 305 306 305 304 304 306 303 302 295 282 277 291 297 306 298 308 303 299 299 296 294 294 295 293 295 296 296 297 294 289 290 290 288 289 290 286 287 289 290 288 288 285 284 285 286 286 287 285 285 284 285 285 284 283 283 279 279 279 276 275 277 280 274 276 277 277 277 277 277 278 279 279 279 279 279 280 280 280 280
315 314 312 312 309 306 303 306 304 306 306 303 304 304 303 301 299 291 280 276 296 289 296 299 298 296 296 293 293 295 293 293 294 293 293 292 294 294 293 294 290 290 287 288 288 288 290 293 292 288 285 286 284 284 285 286 287 288 286 285 282 282 283 281 280 279 275 271 277 279 280 278 273 276 277 275 277 280 279 278 278 278 279 279 279 279 280 280
315 313 311 311 302 305 302 298 305 305 305 303 304 303 302 296 287 279 274 281 293 294 296 296 294 298 293 292 290 293 293 292 293 292 290 293 291 290 292 291 290 284 282 282 283 285 288 289 288 287 290 289 286 287 287 286 286 286 282 280 279 279 277 276 272 276 270 270 272 276 278 279 272 274 278 279 277 280 280 278 278 278 278 279 279 279 279 279
314 312 311 306 304 304 299 302 304 305 304 303 304 300 293 285 287 282 279 294 286 289 290 290 293 292 293 293 291 290 288 293 291 290 288 283 285 288 285 287 283 286 281 280 283 282 284 285 286 288 290 290 286 284 283 285 285 283 278 278 275 271 272 267 270 269 269 272 274 275 276 275 276 279 278 281 277 280 281 280 279 278 278 278 279 279 279 279
313 310 310 308 306 302 304 306 306 305 302 302 300 296 288 282 275 282 283 288 284 292 291 295 292 293 291 291 289 291 291 290 292 290 291 289 287 284 285 288 286 289 284 282 281 282 283 282 286 286 287 289 287 283 280 282 282 281 280 274 272 269 265 267 266 267 268 271 276 275 278 273 276 278 280 279 278 279 279 279 279 279 278 278 279 279 279 279
313 310 306 307 304 305 307 304 304 303 302 301 296 292 285 280 279 291 287 287 289 295 295 293 293 291 292 288 287 291 289 289 290 288 290 286 286 284 285 289 289 290 288 281 282 278 275 277 282 284 284 288 288 285 281 280 280 281 279 279 275 273 270 272 268 269 274 272 272 275 272 269 269 275 277 278 278 279 279 279 279 279 279 279 278 279 278 278
312 309 307 306 303 304 304 304 304 303 301 297 289 286 281 281 281 282 285 287 291 292 292 292 292 289 288 288 289 291 292 287 289 287 287 285 283 281 283 286 290 287 282 284 281 279 281 281 283 284 284 286 286 286 285 281 280 280 279 278 276 276 277 274 269 268 267 269 270 269 273 273 276 277 278 278 278 278 278 278 279 278 278 278 278 278 278 279
308 306 307 303 304 304 306 307 303 303 301 293 285 281 283 285 281 284 287 294 294 292 290 291 288 287 284 284 284 289 292 288 289 287 283 284 284 284 284 286 287 290 286 283 280 279 281 278 283 284 283 282 282 283 286 284 278 279 280 276 279 281 280 275 273 272 271 270 272 270 273 277 276 277 276 277 277 277 277 277 277 277 278 277 278 278 278 279
307 309 304 304 304 305 307 307 306 302 299 289 285 284 286 286 288 289 296 294 293 293 289 286 284 287 282 283 284 287 288 289 285 285 282 283 285 286 286 288 289 288 291 290 285 284 282 283 282 281 283 282 281 282 283 281 284 280 276 278 282 282 281 277 273 271 270 268 272 272 274 276 274 272 276 275 275 276 275 276 276 277 276 276 278 277 278 279
306 306 308 308 308 307 307 306 305 300 296 288 283 291 287 288 293 294 294 293 294 293 287 285 285 289 283 284 284 286 287 286 283 285 279 283 284 288 286 287 289 290 290 287 287 285 282 281 280 280 281 282 283 284 282 283 284 281 280 285 281 275 275 276 271 269 269 270 272 275 273 276 276 277 273 274 274 275 275 275 276 276 276 277 277 277 278 278
306 304 301 306 308 308 307 306 301 298 292 285 283 287 291 293 294 294 294 295 294 290 287 287 287 287 287 284 285 286 285 283 283 283 283 283 283 288 289 289 288 285 287 288 286 282 284 281 280 279 280 281 281 281 277 278 283 283 284 280 283 279 278 273 276 274 275 272 272 274 274 274 276 279 275 276 277 277 275 275 275 276 276 276 276 277 277 277
303 300 299 304 305 307 307 306 300 294 287 284 286 288 290 291 296 297 294 296 292 292 288 286 289 287 287 288 287 285 285 285 283 283 285 285 285 290 289 291 288 285 283 286 285 284 282 282 279 278 279 281 278 280 280 280 276 277 278 277 278 278 280 279 276 273 274 271 271 272 271 274 277 278 278 278 278 278 277 276 276 276 276 277 277 278 277 277
305 300 299 304 306 308 307 303 294 287 286 287 289 288 292 292 294 296 298 298 295 297 293 289 289 288 288 286 289 288 287 285 285 284 285 284 286 283 288 291 288 286 283 283 284 282 279 280 280 276 276 278 281 283 283 282 283 280 280 278 279 276 274 273 273 276 274 274 270 269 272 278 277 279 280 279 280 278 277 277 277 276 276 277 278 277 277 277
301 293 298 306 307 307 302 293 292 290 285 285 287 291 291 300 295 295 294 296 296 294 296 293 290 290 288 289 288 287 287 284 285 285 284 286 287 289 287 290 289 287 287 282 282 283 283 279 278 279 280 282 282 283 282 282 282 281 281 280 281 280 278 276 272 274 272 274 274 275 272 275 279 280 280 280 279 279 278 277 277 277 276 276 277 277 277 277
299 297 302 306 309 306 299 292 293 291 289 291 294 294 294 293 292 293 295 293 292 295 292 291 291 290 291 291 290 287 289 286 285 285 283 286 287 290 286 288 287 286 285 280 283 282 290 280 276 281 282 280 278 280 280 281 281 279 278 279 279 278 280 279 279 278 273 272 270 271 270 274 278 279 279 279 278 278 278 277 277 277 277 277 276 276 276 277
300 299 298 306 308 304 296 288 288 290 292 292 293 293 295 294 294 291 292 292 293 289 292 290 290 294 291 291 290 288 290 285 287 288 285 285 286 282 282 287 289 285 289 284 285 286 281 281 279 277 277 282 276 276 277 279 278 275 276 279 280 282 281 281 278 276 271 274 274 272 268 275 279 278 278 278 278 278 277 277 277 276 276 277 276 276 276 276
300 302 300 301 305 302 293 293 289 289 291 291 291 291 292 293 294 296 293 292 292 288 290 289 294 290 290 290 289 290 290 291 287 286 287 284 287 283 282 285 285 286 285 284 291 289 286 281 280 276 277 276 277 279 280 273 276 277 277 278 280 279 279 277 274 274 270 275 276 272 272 279 276 279 278 278 278 277 276 276 276 277 276 276 277 277 276 276
297 289 297 295 299 297 297 297 294 291 286 288 289 292 293 291 293 294 295 292 294 290 293 291 290 292 289 288 287 287 288 290 289 283 285 286 282 281 281 280 283 283 286 291 289 288 281 280 283 285 283 282 285 286 280 281 276 274 275 277 278 280 280 280 278 273 272 275 274 276 277 278 277 276 277 278 278 278 277 276 276 276 276 277 276 276 276 276
299 292 292 286 296 294 293 296 293 291 289 292 287 289 289 291 292 292 295 291 292 292 291 292 290 288 286 288 287 287 289 286 287 286 285 284 282 280 281 280 281 284 290 286 287 282 278 278 281 283 286 287 288 288 285 282 280 281 277 276 279 279 279 277 275 274 278 273 271 278 279 277 278 280 279 278 279 278 276 276 276 276 276 276 276 276 279 275
292 295 296 297 292 286 288 289 294 293 294 293 290 292 288 289 289 288 291 295 293 293 291 289 291 293 290 289 289 286 287 285 286 285 288 289 283 281 281 281 280 284 284 282 285 284 280 280 285 283 282 285 286 285 286 283 281 281 281 279 277 278 278 276 276 279 278 274 274 280 280 276 278 280 282 281 281 279 276 275 276 277 276 275 275 275 275 275
299 296 296 299 290 290 292 293 295 293 292 293 291 291 289 289 287 290 289 287 291 289 293 288 289 291 291 292 290 288 286 281 282 287 287 287 287 281 277 279 281 280 281 280 282 281 280 280 283 284 283 283 284 284 284 282 282 282 281 280 279 278 277 278 278 279 278 277 279 279 279 278 280 281 283 281 280 277 276 277 276 276 275 276 274 274 274 274
295 295 291 297 294 290 291 293 293 293 290 293 289 290 290 289 289 291 290 290 286 289 293 290 291 290 291 292 291 288 289 289 289 286 288 288 284 284 281 284 279 279 279 279 280 281 283 280 285 282 280 280 283 283 282 281 280 279 281 281 279 279 279 278 278 278 278 277 278 278 277 277 281 284 283 282 278 277 277 276 276 275 275 275 274 274 274 273
302 302 300 294 290 291 291 290 291 291 290 291 290 291 292 291 290 293 292 296 293 288 289 290 292 292 291 291 290 290 293 291 291 292 291 289 287 287 286 283 283 278 279 278 280 279 283 280 279 278 276 278 281 280 280 280 279 278 277 278 278 278 276 278 276 278 277 275 277 277 275 275 280 280 281 279 276 276 276 276 275 275 275 275 274 274 273 272
302 304 303 297 291 294 291 291 291 291 287 291 292 292 292 291 294 294 290 295 296 295 292 293 293 292 289 289 288 291 293 294 294 292 290 292 290 287 292 289 286 283 279 279 282 279 281 279 278 277 273 276 277 277 275 276 275 273 275 278 279 279 280 280 280 280 279 279 276 274 275 280 281 278 277 275 276 276 276 276 275 275 275 275 275 274 273 272
Wind_Speed
17 17 17 17 17 18 18 17 17 17 16 16 16 16 16 16 15 13 11 11 11 10 8 10 9 9 8 8 8 7 6 4 5 4 10 2 4 10 12 11 10 11 11 5 5 7 6 4 4 4 3 0 2 1 1 2 1 2 2 2 4 2 2 1 2 1 2 3 1 1 1 6 2 1 0 5 15 13 12 16 12 14 13 9 5 5 5 6
17 17 17 17 17 18 17 18 17 17 16 16 15 15 16 16 15 12 12 12 11 9 9 8 10 8 8 7 7 6 3 1 6 9 4 2 7 10 11 10 9 7 8 3 5 4 5 7 5 6 4 1 1 1 2 1 2 2 0 2 4 0 1 2 1 5 2 2 1 0 1 4 0 1 1 5 3 11 12 9 10 14 10 8 8 7 9 11
17 17 17 17 18 18 17 18 17 16 16 16 15 15 14 17 18 13 13 12 11 9 9 9 9 8 7 7 6 3 1 2 1 6 2 5 8 9 9 8 7 4 1 1 2 2 2 4 5 3 2 1 1 2 1 1 1 0 2 2 2 3 2 2 4 3 4 3 3 2 2 5 2 1 0 4 5 6 12 9 7 11 9 8 7 9 10 11
18 18 18 17 18 18 18 18 17 16 16 16 15 14 15 17 18 16 15 13 10 9 8 8 7 7 7 6 5 2 1 2 3 2 2 6 8 9 8 8 8 3 1 3 3 2 2 3 4 1 1 1 2 2 1 0 2 1 2 2 2 1 3 2 5 5 4 5 1 2 1 4 4 1 2 7 10 7 5 3 13 12 11 9 7 7 8 9
17 18 18 18 18 18 19 18 17 16 16 15 14 14 16 17 17 17 15 13 10 9 8 6 7 6 6 4 3 0 1 2 1 0 2 9 10 9 9 9 10 3 2 4 4 1 1 3 1 1 1 2 2 1 1 0 1 1 2 1 3 3 2 3 5 6 5 6 5 3 6 2 3 4 4 5 8 4 5 9 12 12 10 9 9 7 6 7
17 18 18 18 18 18 19 19 17 17 16 16 13 12 15 16 15 17 16 13 10 8 8 7 6 6 4 3 1 1 1 0 0 1 5 9 10 10 11 10 11 4 1 4 4 4 11 7 5 2 3 1 0 2 1 1 1 1 3 1 1 1 0 3 4 4 8 3 4 3 0 1 3 3 4 12 10 6 9 12 13 12 11 10 9 7 8 9
16 17 17 18 18 19 20 19 18 18 16 15 15 12 12 14 15 16 16 13 11 8 7 6 6 5 4 1 0 2 2 1 1 4 6 9 10 11 11 8 9 6 3 7 8 5 6 5 5 3 1 2 0 2 1 1 1 3 3 1 1 3 2 2 4 6 5 8 2 1 2 0 3 8 5 16 10 12 11 12 13 12 10 10 12 9 10 7
16 16 16 17 17 18 19 19 19 18 17 16 15 14 13 13 14 15 16 14 10 7 7 5 4 5 1 1 1 1 0 1 3 3 6 8 9 9 8 3 10 4 8 6 5 5 3 6 3 3 3 2 1 1 1 2 1 2 2 0 1 1 1 2 3 4 3 2 2 6 4 5 4 8 8 11 12 12 12 12 12 11 11 10 11 10 7 7
16 16 16 17 17 17 17 18 19 18 18 17 15 14 15 13 15 14 16 14 9 7 6 5 4 3 2 1 1 1 2 1 5 1 6 7 7 7 9 5 7 5 1 4 5 4 2 2 2 3 2 2 1 5 2 2 4 1 0 1 1 1 1 0 1 3 2 0 2 2 4 4 10 17 10 12 10 11 11 11 11 11 11 9 9 8 7 6
18 17 16 17 18 17 18 18 18 18 19 18 17 15 14 13 16 14 15 14 8 5 5 4 4 3 1 1 1 1 1 3 1 1 4 4 5 6 9 4 4 6 4 4 7 6 3 0 0 3 0 2 1 3 1 1 2 1 0 0 0 4 0 1 2 1 2 1 1 4 0 1 4 6 4 4 11 11 12 11 9 11 10 8 7 6 5 7
19 18 18 17 18 18 19 19 18 19 19 18 19 17 10 14 15 14 14 14 9 5 3 3 3 1 0 1 2 2 1 4 0 1 1 3 6 6 3 4 2 3 4 5 5 2 1 1 1 1 1 1 2 5 0 1 1 2 1 4 5 5 0 2 2 2 0 1 2 2 4 2 4 4 12 12 9 11 15 11 10 10 9 8 6 6 4 5
19 19 18 18 18 19 19 20 20 18 18 18 18 18 21 15 14 14 14 13 9 2 1 2 2 0 1 2 3 2 3 4 1 0 1 1 1 4 5 2 2 3 2 3 1 1 2 0 2 1 1 1 3 1 0 1 0 1 1 1 5 3 1 1 3 2 2 2 2 1 1 1 0 7 14 14 10 11 14 12 10 10 9 7 6 5 5 4
18 19 18 18 19 18 19 20 19 20 19 19 18 15 22 19 15 14 13 11 4 2 2 0 1 1 1 1 1 2 2 1 2 3 3 1 0 0 1 1 1 2 3 3 1 1 1 2 2 1 1 1 1 0 0 0 2 2 1 3 2 2 2 6 1 1 3 2 1 4 5 3 2 12 14 12 12 12 12 10 9 8 8 7 6 6 4 3
19 19 17 18 19 18 18 20 20 20 20 19 18 19 17 19 15 13 13 8 7 5 2 2 1 0 1 1 2 3 1 1 2 4 3 3 4 1 1 1 0 2 1 3 3 2 2 2 3 1 1 1 1 2 3 1 1 0 0 3 3 2 3 4 3 3 3 2 1 1 3 7 3 12 13 11 14 15 12 9 8 7 5 5 5 5 4 4
18 18 17 18 19 18 19 19 20 21 21 19 20 17 20 19 16 13 11 7 2 1 4 1 2 2 2 0 2 2 2 1 3 1 1 4 2 0 2 3 1 3 2 3 2 1 3 3 2 1 1 2 1 2 4 2 2 0 2 2 2 3 4 2 3 5 6 1 2 2 3 5 4 11 10 9 9 12 13 9 8 6 6 5 4 4 4 4
18 18 18 17 18 19 19 19 19 20 20 22 20 24 22 19 13 12 8 6 5 6 1 1 0 2 1 1 1 2 1 2 1 2 1 2 1 1 2 4 1 0 2 0 2 2 1 3 0 1 2 2 1 0 4 4 2 3 2 3 2 2 3 1 2 2 5 1 1 4 4 1 1 6 8 6 11 10 12 10 8 8 7 5 4 5 4 4
17 19 18 17 18 19 19 19 18 18 19 19 24 24 21 16 10 8 2 0 1 0 1 0 0 1 2 0 1 1 1 1 0 0 3 0 2 1 1 2 2 2 1 2 3 2 1 1 1 1 1 0 1 3 5 5 5 3 2 1 2 4 2 3 4 3 1 3 3 2 3 5 3 8 7 6 10 11 11 10 9 7 6 5 4 4 4 2
17 19 17 17 19 19 19 19 19 19 18 24 23 18 17 18 7 0 2 2 0 1 0 0 2 1 1 0 1 2 1 3 3 3 3 2 2 0 0 1 0 3 1 0 1 1 0 1 1 1 2 4 5 6 5 4 3 4 6 6 7 2 2 5 1 3 2 2 4 3 4 6 4 5 6 8 6 10 10 10 9 8 7 5 5 4 3 3
17 18 17 17 17 18 19 18 20 19 18 23 18 16 5 1 1 2 5 5 1 2 2 1 2 1 4 1 2 3 1 3 1 0 1 0 0 1 0 1 2 1 1 1 0 1 0 1 3 3 1 3 2 2 2 4 4 6 5 4 2 5 6 4 4 2 3 3 5 5 6 4 6 4 4 6 5 9 9 7 7 7 6 5 4 4 3 2
14 18 17 17 17 17 19 19 20 20 17 13 11 8 6 8 8 1 8 6 1 2 2 2 2 2 5 3 1 3 1 3 0 2 2 2 1 2 1 2 3 3 1 1 5 2 3 5 1 2 6 4 1 3 2 4 4 3 1 2 7 7 8 4 3 2 1 1 7 8 5 4 5 9 8 7 6 7 9 9 7 6 6 5 4 4 3 3
12 15 16 17 17 17 18 20 20 18 20 6 5 6 3 1 2 4 6 10 7 4 2 2 1 2 3 1 1 3 0 1 0 1 1 1 1 0 0 1 2 2 1 2 1 1 6 6 5 6 6 4 2 3 1 1 1 3 4 4 8 5 9 6 4 3 1 2 3 3 4 6 8 5 9 5 9 11 11 10 8 7 6 5 5 4 4 1
11 14 15 16 17 18 19 19 20 17 15 2 5 5 2 1 1 1 1 6 4 2 2 0 1 1 2 2 1 3 4 0 1 3 4 4 1 0 2 2 1 1 3 4 3 5 4 5 7 8 5 1 2 3 3 4 4 4 5 4 4 8 6 8 3 2 1 1 7 4 5 8 8 9 8 12 12 7 6 9 9 9 7 5 5 4 2 1
10 13 16 15 15 17 18 19 16 14 5 7 4 3 1 1 3 3 1 1 7 2 1 1 0 2 1 3 0 1 0 2 2 1 3 5 0 1 0 2 1 1 2 3 2 2 8 3 7 4 3 2 1 1 3 2 2 4 4 3 8 4 2 6 2 4 3 1 3 4 12 10 4 1 7 5 5 4 5 7 7 8 8 6 6 5 4 3
9 11 13 13 16 16 18 18 15 4 4 4 4 2 1 2 3 3 0 2 6 3 1 2 1 1 3 1 1 2 1 1 2 2 3 1 1 2 2 2 0 1 1 1 2 3 8 6 3 3 4 3 2 1 1 3 6 5 6 5 5 4 5 4 6 4 5 6 3 9 11 8 9 6 4 2 3 8 6 7 6 5 6 7 5 4 5 4
9 11 11 13 14 16 18 16 4 2 2 2 2 1 0 1 2 2 1 4 2 4 2 2 2 1 1 1 0 0 1 0 0 0 2 0 1 1 1 1 2 1 3 2 0 2 8 4 2 3 2 1 2 2 4 5 5 3 5 7 6 2 4 4 4 6 5 6 5 4 7 6 7 14 13 6 4 7 5 8 7 6 5 5 6 5 4 4
8 10 11 12 15 17 16 2 0 1 2 1 0 1 1 0 2 3 1 2 3 3 1 3 0 1 1 0 1 2 2 2 0 1 1 1 0 1 1 0 1 2 1 1 3 3 4 0 3 3 3 1 1 3 3 5 6 0 6 4 3 3 1 1 3 3 5 4 3 3 5 11 3 6 9 7 9 9 4 7 8 6 6 5 6 5 4 4
7 9 10 12 13 15 3 1 0 0 1 1 1 0 1 1 1 0 1 2 3 3 3 0 1 1 1 0 1 1 0 2 2 1 1 2 1 0 0 3 1 1 1 1 4 5 2 0 3 2 2 3 3 5 4 6 4 5 1 3 3 0 2 4 3 5 9 0 4 2 3 10 11 7 7 8 11 8 8 7 8 7 7 6 6 5 3 3
7 8 9 11 13 7 1 2 4 1 0 0 1 1 1 1 3 1 2 3 2 1 1 2 0 1 0 0 4 2 1 1 1 1 0 1 0 2 1 3 3 3 1 3 6 5 3 2 3 2 1 3 6 5 3 5 4 3 2 5 2 3 5 5 5 7 4 4 9 6 5 4 7 4 8 13 8 8 12 11 10 8 7 7 6 6 4 4
5 6 8 10 14 7 2 1 1 1 1 1 1 1 2 2 2 2 2 0 1 1 2 2 2 0 0 1 0 1 1 1 1 1 2 0 1 1 1 2 2 2 2 6 8 3 2 2 5 6 4 7 4 2 6 8 1 2 3 2 3 3 4 5 5 6 2 1 14 4 7 6 12 4 5 3 6 10 13 13 10 9 8 7 7 5 5 3
4 4 6 10 8 2 4 1 1 1 0 2 1 1 2 1 1 1 3 5 1 1 1 1 2 1 2 2 2 0 3 2 1 0 1 1 2 2 1 0 0 1 3 2 5 6 2 2 4 4 5 4 4 2 3 2 3 1 0 3 4 3 4 1 2 1 2 4 14 5 10 8 9 5 10 12 12 15 10 6 6 6 7 7 6 6 4 4
4 3 3 5 2 1 1 2 1 1 0 1 1 1 1 2 2 3 3 6 1 2 2 0 2 1 3 1 1 0 0 1 1 1 1 0 1 2 0 1 3 2 2 3 4 4 1 1 0 2 2 3 3 1 2 1 1 1 1 1 5 7 4 2 2 3 1 8 6 2 6 6 8 4 7 7 2 10 16 18 14 10 8 8 6 5 5 4
5 3 1 0 1 0 1 1 1 0 0 1 1 1 1 1 3 4 6 1 1 2 3 2 0 2 3 0 2 2 2 0 1 3 4 2 1 2 2 5 1 5 3 2 4 3 2 6 2 2 2 8 2 1 2 2 1 3 2 2 3 6 5 3 2 2 6 9 2 1 1 2 15 12 5 10 4 6 13 14 14 11 9 7 6 5 5 4
4 3 2 3 0 0 1 2 3 1 1 1 1 1 2 3 4 5 5 1 3 3 3 3 2 2 2 2 2 2 1 3 2 2 3 0 1 3 4 4 5 5 7 1 3 4 7 2 2 2 2 3 6 3 2 0 2 3 2 3 2 3 2 5 5 3 4 5 3 1 2 7 3 6 7 9 5 8 10 10 8 10 9 7 6 5 5 5
6 3 1 2 4 3 1 3 3 2 1 0 2 2 3 3 7 6 7 6 4 1 3 1 1 2 1 6 3 4 2 4 4 3 2 1 1 2 2 4 4 1 1 2 2 2 4 5 5 5 2 2 5 4 7 3 6 7 2 6 7 6 2 7 1 5 9 8 3 3 3 8 2 4 3 5 7 8 7 8 7 7 8 7 7 6 6 4
6 3 2 1 0 4 4 3 4 3 1 2 2 4 7 8 3 4 5 4 2 0 1 1 3 2 3 1 2 2 3 3 1 2 1 4 5 4 4 4 4 5 2 1 4 1 8 7 2 1 1 3 6 1 3 4 2 2 2 5 4 7 6 7 5 2 4 8 7 3 7 4 4 3 2 5 7 6 6 7 7 7 6 6 5 5 5 2
3 3 3 2 2 2 6 4 4 3 4 3 4 5 12 9 5 3 5 5 1 3 2 2 2 1 4 2 2 5 5 4 2 1 2 5 4 4 4 4 6 11 8 7 3 2 1 5 1 1 5 1 1 0 1 2 2 1 3 4 6 2 5 3 2 1 1 1 14 4 8 4 2 1 2 5 8 6 6 7 7 7 7 6 5 5 3 1
3 2 1 3 2 3 5 5 5 4 3 5 5 11 8 4 7 3 4 3 3 7 3 3 4 7 3 4 3 2 3 2 3 2 4 1 5 7 3 5 4 5 10 8 4 4 4 8 1 3 4 1 1 0 0 3 2 6 3 7 1 2 2 3 4 3 1 5 10 5 10 8 5 9 5 5 9 9 7 8 8 7 7 6 6 4 2 2
3 3 2 3 4 7 6 6 6 2 2 5 11 12 3 6 4 8 1 3 1 1 3 5 5 8 4 4 4 5 1 5 3 3 4 4 4 4 5 2 3 7 8 0 5 3 4 9 3 2 0 3 1 0 3 0 1 4 2 2 3 3 2 0 5 4 3 8 8 6 5 13 10 8 7 12 13 13 10 7 7 7 6 6 5 4 1 1
1 0 3 4 7 10 7 6 3 6 4 6 8 9 5 9 2 7 7 5 1 3 4 6 5 3 6 4 3 1 6 6 3 6 1 3 3 4 6 6 1 2 1 7 2 1 1 4 4 1 2 1 1 4 6 4 1 2 1 1 1 2 4 3 5 3 2 11 6 10 3 14 8 8 18 18 17 15 10 9 9 8 8 6 5 4 3 3
3 1 6 1 4 7 7 6 4 3 4 14 11 11 3 7 10 8 4 8 5 5 6 4 6 5 3 8 6 6 5 4 6 6 5 3 5 1 5 2 5 1 4 1 3 1 2 4 9 1 4 1 2 6 9 10 7 2 2 2 1 2 1 2 1 5 6 5 5 8 14 5 5 5 14 14 17 16 14 11 8 7 7 7 7 6 5 3
1 2 2 1 6 7 7 3 4 9 9 4 3 5 6 6 1 7 15 12 4 4 6 4 6 8 5 2 8 4 3 6 6 6 6 4 6 4 5 7 7 6 1 4 1 2 1 2 10 2 1 7 8 2 7 8 10 9 11 11 13 7 3 3 10 3 4 7 6 3 19 11 4 3 7 10 12 12 10 11 8 7 8 7 6 5 4 3
5 7 3 9 7 9 9 7 6 3 3 9 11 6 5 5 7 7 2 7 12 7 1 3 5 6 5 6 5 4 4 4 7 5 5 9 4 9 2 8 9 12 10 7 8 4 5 2 1 10 9 10 4 2 0 2 2 4 8 8 10 8 4 5 9 7 0 7 1 12 10 20 8 6 7 10 11 12 10 8 6 7 8 7 7 5 4 4
8 6 4 7 9 9 8 6 2 6 9 6 2 9 5 5 3 4 9 4 5 7 3 5 6 5 8 6 3 4 6 6 7 8 4 5 6 8 3 7 10 7 6 0 1 2 2 2 1 11 5 2 1 1 3 3 2 2 4 2 5 12 15 14 11 3 4 2 4 9 10 15 2 0 6 8 7 8 6 7 8 8 6 7 5 4 3 2
2 3 2 1 6 4 7 11 9 11 11 3 6 9 6 6 6 5 6 5 8 3 8 4 2 11 6 4 5 6 6 4 6 8 5 4 4 2 4 7 13 8 9 8 8 6 3 4 6 5 6 6 2 3 2 2 1 5 5 8 11 7 5 4 1 2 3 12 14 8 14 17 4 2 3 7 5 7 6 5 10 8 5 5 5 4 4 3
1 2 4 6 7 7 12 5 6 7 11 11 8 12 9 7 9 12 6 7 3 4 4 7 10 3 5 4 5 5 7 17 6 4 5 5 4 0 7 6 3 6 2 1 1 7 5 4 7 6 10 14 18 13 7 5 11 5 2 4 9 13 10 4 10 6 6 13 11 13 15 16 2 2 9 6 9 6 4 7 3 7 7 6 5 5 4 2
7 7 4 4 8 7 6 1 1 5 5 7 10 16 15 14 3 7 14 8 9 4 9 3 0 7 6 4 5 7 11 9 11 2 4 4 3 2 2 5 1 3 1 1 3 6 3 1 8 12 12 17 18 10 4 5 5 6 6 13 12 12 14 14 2 4 18 7 9 21 19 21 10 5 8 8 7 10 7 6 7 5 6 6 6 4 2 1
2 9 7 6 4 10 10 7 7 4 9 9 8 4 14 17 10 4 11 6 8 10 5 9 4 5 3 5 10 11 15 6 7 6 8 5 2 2 4 1 2 1 1 2 2 4 1 3 13 14 20 23 20 17 4 5 11 10 7 11 13 14 17 17 15 21 5 4 19 22 18 16 23 14 10 10 10 8 6 9 8 8 8 7 4 3 1 1
11 7 7 8 8 9 12 11 16 14 15 10 13 6 5 10 12 11 2 9 5 10 9 2 10 16 12 15 9 9 8 7 7 9 8 10 2 2 1 0 3 2 3 1 0 5 6 9 15 9 21 22 19 16 12 7 10 13 13 8 13 16 17 20 23 27 11 12 24 27 8 14 20 15 15 13 13 12 11 11 10 8 5 4 3 1 1 1
8 2 5 11 9 7 19 16 20 20 21 17 11 14 20 14 10 10 6 3 7 6 17 13 16 18 17 15 13 16 7 4 8 11 9 9 14 4 2 1 4 2 3 2 2 2 2 10 12 6 16 16 17 14 10 12 16 17 21 11 15 18 21 23 25 23 21 22 27 24 23 24 20 15 12 7 8 8 6 6 5 6 6 5 3 1 0 1
15 13 6 11 11 6 7 8 11 16 19 20 14 22 14 10 17 9 2 9 7 14 11 19 18 11 19 22 21 19 18 15 13 13 9 10 4 5 5 8 3 1 2 6 4 3 7 8 6 4 8 19 19 7 9 11 14 21 24 13 19 19 17 21 22 20 18 23 27 29 25 26 24 16 10 5 7 5 7 8 9 7 7 5 3 1 1 1
7 11 5 6 11 11 7 10 13 16 15 16 19 19 7 15 21 14 13 13 22 9 10 22 23 19 16 19 20 24 20 14 15 21 8 16 14 9 8 5 13 7 7 5 3 3 7 6 5 2 5 14 4 8 9 9 10 19 24 20 19 18 21 22 18 22 17 25 25 20 16 19 25 1 6 6 9 12 12 11 8 7 6 5 3 2 1 1
3 2 11 4 9 9 14 10 10 8 17 20 17 18 16 23 20 12 12 13 15 9 13 22 23 15 10 13 20 25 20 15 16 7 3 7 0 2 13 5 17 14 11 11 5 7 9 4 5 5 3 14 2 4 6 2 6 16 27 26 21 25 26 17 16 19 22 20 14 18 21 24 11 5 5 6 11 11 10 9 8 6 6 5 2 2 4 3
Wind_Direction
357 355 353 351 351 347 346 344 342 342 344 347 346 341 338 337 339 340 340 344 343 347 343 335 332 334 335 340 346 350 347 78 51 42 55 220 270 290 291 292 296 305 317 324 339 23 356 2 358 337 28 60 262 66 270 35 29 62 46 93 351 211 52 262 74 87 131 101 353 54 345 109 88 337 91 77 84 97 85 84 84 72 69 80 92 95 83 61
355 354 353 351 350 347 344 344 341 341 344 344 344 343 342 338 339 335 345 347 347 345 347 338 333 335 338 339 346 348 52 78 76 69 95 248 281 284 286 288 294 308 325 31 11 6 18 350 333 1 24 347 312 138 10 284 74 85 48 82 233 255 233 97 133 34 77 69 122 300 69 115 126 138 345 80 87 113 86 82 91 85 78 71 69 68 61 56
354 354 353 352 349 347 345 344 340 341 341 340 340 340 341 341 340 338 341 348 349 350 347 341 335 333 340 338 330 340 348 27 54 16 279 244 285 296 293 290 284 288 62 283 268 311 250 273 292 7 331 339 313 188 29 285 64 261 104 325 251 225 264 111 86 100 95 140 54 360 24 92 296 111 338 116 129 91 116 127 74 89 93 78 65 57 58 58
353 353 352 349 347 346 345 342 340 340 341 340 337 339 343 343 338 341 344 345 349 352 346 342 330 334 340 332 314 325 59 68 47 272 262 302 306 317 303 294 295 300 254 218 236 278 274 309 291 204 305 51 288 76 89 289 73 286 75 193 239 260 13 311 90 126 110 90 100 27 19 40 323 294 102 154 86 51 62 94 125 118 107 95 80 73 66 66
351 352 350 348 348 347 343 341 339 341 341 338 336 330 339 342 338 338 343 345 350 351 351 341 341 333 341 340 26 310 74 52 272 250 280 329 331 320 312 311 309 313 250 265 298 262 224 214 318 55 90 274 351 34 334 344 135 76 206 207 240 351 14 297 45 64 86 58 62 45 50 292 315 44 66 102 107 118 128 109 105 110 113 106 97 86 81 73
350 349 349 348 346 345 343 340 340 337 338 337 332 326 333 340 339 336 339 342 346 353 350 347 344 338 344 338 54 36 59 123 239 315 318 335 335 324 319 322 316 319 321 349 26 345 27 346 42 43 355 54 340 116 259 142 137 337 309 280 23 134 219 323 33 26 63 42 43 31 190 330 62 80 45 83 103 108 106 114 110 106 105 105 95 86 69 61
348 346 346 345 344 344 342 341 337 336 335 332 329 324 322 330 338 335 333 338 342 348 353 342 344 343 329 316 356 64 117 221 30 264 356 345 333 331 330 336 347 9 58 31 15 35 354 11 54 353 32 40 330 99 218 165 69 127 229 283 323 11 20 360 31 40 63 72 17 248 25 92 115 91 81 89 99 113 115 110 107 105 102 94 84 75 72 65
348 346 346 344 342 341 340 339 337 334 332 332 329 325 324 325 335 333 327 332 337 344 348 347 347 335 290 58 49 360 50 253 244 268 353 349 344 347 342 24 7 11 52 60 29 17 20 25 21 333 72 83 269 57 292 32 116 131 254 282 264 8 280 11 48 51 58 52 35 43 36 313 165 115 103 105 120 120 118 110 105 104 96 88 87 84 79 76
347 344 344 344 343 339 334 335 335 333 329 329 328 325 329 324 333 330 322 323 334 337 337 348 344 343 268 100 119 23 279 224 201 194 26 353 343 8 27 18 340 45 69 47 48 33 95 312 9 35 273 11 351 359 332 57 325 161 172 304 12 289 263 119 31 62 79 95 63 72 2 342 101 95 74 139 131 128 122 110 109 104 96 93 95 95 92 81
347 343 341 342 342 338 336 335 332 330 328 324 326 325 322 322 330 326 320 317 328 336 326 339 358 326 79 89 48 307 264 214 342 85 56 6 13 27 39 22 5 45 49 354 42 39 58 329 87 287 147 272 294 260 157 105 227 165 123 195 256 269 234 298 162 157 134 164 83 48 66 306 243 96 138 170 145 137 115 111 108 103 103 107 102 100 100 91
346 343 341 339 340 339 338 335 333 329 325 325 322 321 316 328 326 324 318 313 318 327 317 331 17 341 45 101 102 222 172 83 237 57 22 72 53 48 18 332 357 66 84 56 71 94 141 71 339 306 48 231 16 291 164 234 130 59 117 345 309 268 205 209 90 191 81 307 57 76 323 219 268 110 154 170 164 138 119 118 115 109 112 112 111 109 112 94
344 344 339 339 337 338 337 337 332 326 326 321 318 319 325 332 326 322 315 307 310 314 346 342 357 125 109 89 161 220 166 205 163 171 80 29 98 168 217 201 84 118 101 90 38 61 104 120 54 56 186 32 284 307 276 277 83 161 84 332 327 69 124 213 182 223 131 254 335 80 37 31 231 147 153 162 154 136 121 126 126 122 121 119 115 108 94 103
344 341 339 337 337 335 335 333 331 328 325 320 318 311 319 326 323 319 311 308 314 336 344 102 3 158 91 2 249 221 220 222 135 61 346 3 200 295 177 157 130 121 126 124 167 175 106 83 63 38 270 36 256 143 230 86 266 95 53 146 33 19 329 259 246 198 128 259 312 31 317 257 260 137 160 159 145 129 122 130 133 129 127 125 121 109 97 88
343 339 337 336 335 333 333 334 331 329 325 322 315 312 309 319 317 309 299 274 291 307 293 226 109 130 90 246 243 241 238 24 84 37 328 319 86 334 351 290 317 101 120 114 146 154 72 76 93 207 343 150 258 326 351 332 36 97 287 75 142 83 266 250 197 209 159 229 195 95 256 285 180 155 164 164 147 136 131 134 130 128 130 131 137 125 110 98
342 339 335 336 334 330 334 332 330 329 325 321 316 307 312 317 314 299 287 294 293 317 327 94 137 103 47 251 263 321 58 73 70 260 260 43 48 26 312 337 357 178 173 137 154 160 121 71 73 39 291 253 348 11 318 15 354 92 52 295 330 124 277 249 332 170 182 276 171 105 273 241 171 170 170 158 142 130 130 138 135 132 125 125 123 123 109 90
341 339 335 331 332 333 333 331 327 325 325 320 320 315 313 314 310 285 282 262 297 323 313 111 75 113 110 305 189 89 77 126 286 217 235 103 103 105 259 275 236 85 109 331 103 83 71 103 115 196 298 5 38 91 344 32 343 5 105 263 288 349 287 342 283 160 177 148 302 170 228 41 316 191 169 159 138 137 133 137 140 130 127 123 117 112 103 73
339 339 333 330 331 333 331 329 326 322 320 318 322 313 316 309 308 296 290 103 23 254 68 127 13 95 282 197 77 99 233 252 85 45 333 225 141 197 4 4 60 28 46 47 63 71 15 62 272 38 40 147 123 87 41 22 334 315 35 221 231 287 301 279 306 297 242 159 249 262 200 234 211 173 166 157 149 140 136 142 138 137 136 130 120 109 116 127
339 337 330 330 332 332 330 328 325 324 320 323 320 306 301 307 321 28 31 332 336 125 217 91 109 60 323 5 160 251 200 259 348 267 233 254 148 99 146 55 7 20 40 54 357 58 284 331 51 200 19 2 35 35 74 301 247 260 295 316 310 329 232 237 283 272 151 287 209 274 254 265 201 169 167 166 165 141 145 147 145 143 137 132 123 129 147 157
337 336 329 328 328 331 330 327 327 323 323 319 306 316 299 28 325 71 56 340 48 356 36 288 37 115 230 230 250 353 254 216 130 45 293 30 298 159 61 72 81 44 7 51 287 100 7 6 27 36 360 347 34 115 148 230 182 230 229 225 230 279 279 253 243 267 156 235 252 234 235 238 190 213 193 162 167 143 144 135 136 138 136 130 132 140 149 168
333 332 329 327 326 328 330 328 326 324 329 339 348 350 12 13 3 311 352 26 88 176 242 237 181 295 325 28 330 256 159 42 48 269 325 289 2 2 87 124 35 50 80 335 314 303 124 61 7 222 214 201 228 179 185 210 194 229 265 240 258 252 274 275 249 254 197 254 234 230 236 228 209 207 200 174 144 137 145 147 147 143 138 143 136 140 164 133
325 329 328 327 325 326 328 328 326 322 329 330 331 43 42 279 26 313 316 270 256 279 268 259 180 209 239 172 272 22 50 350 83 307 256 253 142 91 118 65 39 22 254 266 238 312 66 16 285 211 204 191 197 212 205 237 261 222 240 249 265 239 264 252 248 208 301 158 283 244 263 264 261 217 197 173 156 173 163 157 152 147 151 152 149 146 140 174
322 325 327 327 324 325 327 326 323 322 324 340 48 73 124 147 129 234 88 318 322 296 35 168 95 333 319 182 234 138 92 54 323 294 298 24 241 122 289 100 113 355 298 349 26 15 8 276 245 211 208 189 235 215 188 188 224 245 224 245 289 268 249 278 233 131 237 330 261 276 255 255 251 253 184 179 182 176 171 157 156 147 150 151 142 143 145 73
318 319 323 323 320 321 327 320 322 322 359 30 46 58 121 260 351 313 87 248 278 287 163 9 324 253 287 324 313 144 64 196 226 307 304 21 13 107 171 72 52 248 5 52 89 16 333 293 243 206 144 166 318 202 201 227 255 231 274 289 247 239 332 301 289 335 306 156 265 272 276 262 244 204 178 199 177 149 149 141 148 150 152 155 166 167 158 187
314 315 315 320 318 321 319 322 312 359 34 104 82 138 297 357 19 16 77 242 296 313 200 221 166 204 197 202 212 113 136 284 128 259 321 47 134 201 83 137 100 65 192 121 142 197 238 244 194 137 161 157 206 262 139 191 254 253 218 230 254 265 237 202 255 321 305 301 283 290 280 264 186 176 203 185 122 125 147 128 142 159 158 167 155 149 164 172
306 312 313 316 321 319 319 316 29 340 142 59 73 236 303 354 52 44 70 319 349 282 147 337 130 262 183 69 359 105 274 7 188 228 278 54 204 61 209 178 96 266 172 229 34 301 279 254 124 140 189 179 142 273 250 168 247 300 238 212 237 192 230 297 322 14 360 311 262 212 322 279 222 190 182 167 148 162 176 147 166 174 173 142 149 174 186 190
299 305 313 317 320 325 311 349 329 282 73 107 222 234 355 24 56 66 86 80 303 263 15 211 101 263 109 182 43 208 60 282 181 223 160 274 221 172 77 23 140 245 171 58 257 223 228 91 133 171 172 168 207 208 242 155 228 259 269 168 160 155 180 268 312 44 298 250 307 125 216 286 105 193 185 186 184 182 180 168 182 182 178 169 170 168 180 187
293 299 314 320 321 338 352 186 276 42 303 311 249 200 326 44 349 59 26 345 319 230 158 255 61 237 48 242 110 69 45 273 325 5 12 313 39 263 146 246 22 32 153 159 31 294 122 277 73 71 127 193 236 265 245 160 141 241 238 130 115 182 261 245 215 199 249 236 295 290 155 267 283 239 213 180 181 185 187 193 191 187 177 179 172 178 176 195
280 297 316 320 315 343 193 313 355 96 176 182 177 43 13 14 77 93 76 360 274 209 97 237 218 322 69 144 79 153 205 140 43 249 189 282 137 354 98 203 173 205 197 82 240 256 155 214 175 188 142 183 230 211 186 141 157 223 211 148 210 204 226 233 218 242 252 360 277 192 222 286 259 274 179 159 187 204 204 193 192 181 182 172 177 181 188 196
258 297 317 323 316 329 149 182 355 285 239 279 31 52 73 63 106 109 122 50 252 85 296 60 274 18 356 20 15 204 319 183 188 227 319 327 42 168 31 251 161 177 239 156 220 274 289 206 205 160 151 237 225 237 164 148 190 277 188 189 219 230 242 220 231 245 313 97 269 198 182 209 271 184 108 199 222 214 203 190 182 183 177 175 174 191 194 200
245 290 323 329 329 50 345 339 78 231 7 55 2 35 41 69 72 36 21 251 37 255 126 192 126 234 103 122 273 51 178 273 158 51 360 146 332 20 36 91 136 253 282 327 233 242 235 39 144 131 198 209 170 208 163 166 205 146 114 321 341 314 260 198 160 161 39 240 258 202 198 180 284 215 172 165 213 204 163 173 178 187 175 177 176 184 191 197
230 268 328 349 57 272 334 345 276 265 68 9 47 52 105 38 125 107 216 227 352 219 36 95 207 65 120 160 251 239 215 199 267 134 299 20 318 29 34 11 38 42 4 341 290 315 4 354 144 261 70 111 100 133 344 89 75 94 2 56 343 311 12 48 351 55 136 267 257 263 206 204 215 284 218 224 328 161 169 174 176 173 175 175 181 194 186 195
204 223 250 37 214 108 161 232 235 213 7 84 88 74 94 306 4 158 216 311 306 239 151 225 290 144 188 26 129 204 193 298 204 156 187 192 152 139 194 206 105 339 322 249 271 1 275 222 234 32 235 129 124 71 317 27 16 74 56 36 26 287 12 326 34 293 199 230 229 172 150 296 235 237 217 222 226 174 167 166 166 164 168 177 191 191 193 195
191 189 241 234 264 195 236 174 165 174 79 26 84 70 89 119 232 232 264 299 252 143 252 97 193 160 162 77 268 244 55 200 250 210 135 225 167 277 248 188 187 170 264 289 304 350 277 290 336 235 25 213 124 154 252 6 182 107 140 151 75 337 352 259 251 241 291 295 242 150 11 252 271 292 222 190 187 154 142 143 150 155 161 179 185 191 188 196
200 161 265 207 193 196 207 156 170 130 80 13 93 61 68 136 239 236 213 221 213 6 88 129 65 59 104 179 239 159 303 255 158 230 144 236 65 245 309 267 166 243 173 337 310 222 329 343 268 159 239 160 178 180 178 173 155 203 146 134 182 156 188 284 194 252 271 250 272 256 25 231 102 236 305 165 139 133 130 138 151 155 164 177 181 179 179 192
177 198 237 292 274 243 201 177 147 143 96 92 96 129 164 226 234 199 235 250 276 45 113 316 116 96 279 356 281 220 188 305 128 102 222 131 239 168 199 227 229 119 125 58 258 75 218 226 265 331 173 148 167 230 140 95 63 220 157 82 94 225 136 219 198 216 304 323 305 182 208 194 191 343 44 123 126 129 144 144 141 160 174 165 161 167 180 200
108 245 149 246 207 241 167 166 147 104 130 110 146 200 210 184 211 177 239 172 154 162 185 34 97 142 239 279 310 202 336 171 296 94 296 196 203 194 211 198 175 184 154 175 200 253 6 274 276 316 32 110 180 221 231 126 223 221 115 210 209 158 140 295 343 78 14 17 258 160 286 277 319 227 163 148 137 158 153 162 157 174 180 166 172 182 188 156
212 131 243 226 238 167 154 142 139 114 92 146 171 226 209 260 188 188 263 176 209 133 113 187 252 176 210 231 215 198 228 63 268 111 274 197 295 201 219 240 158 181 199 153 280 183 211 271 172 108 224 263 208 120 106 24 152 105 202 237 178 133 117 138 237 331 43 231 271 140 246 267 118 277 181 183 177 180 183 179 176 180 169 165 180 179 161 136
175 213 256 235 187 158 140 140 125 82 108 164 218 226 165 223 221 219 133 101 21 57 125 162 268 158 254 176 262 178 245 165 254 135 249 195 252 171 142 178 210 181 204 5 162 282 105 300 220 298 145 281 329 68 348 295 30 179 179 250 118 253 280 181 87 271 270 259 276 264 203 251 174 216 162 211 191 196 195 187 173 185 177 174 180 171 169 167
146 78 252 207 146 151 146 135 106 129 150 200 222 231 218 236 180 211 198 163 144 119 190 230 200 231 173 194 208 145 154 186 194 189 148 248 183 202 186 162 182 6 137 131 185 242 54 238 301 284 123 209 22 99 226 204 301 40 24 7 299 117 230 148 194 207 148 269 310 275 18 266 167 206 184 200 194 188 183 181 189 188 186 177 171 168 183 208
168 147 233 105 138 124 128 123 104 161 175 213 199 221 153 220 228 231 237 183 231 168 228 198 216 245 208 222 158 184 233 176 158 228 173 251 191 240 187 211 157 150 51 59 157 122 223 120 265 108 288 85 206 188 215 166 174 150 146 214 335 200 242 126 286 156 197 233 232 297 297 259 199 175 180 197 187 188 177 181 185 193 179 173 170 171 191 188
210 246 265 144 139 133 116 111 167 195 209 251 238 230 236 234 167 212 225 213 233 228 191 181 167 198 195 200 259 171 192 197 191 191 191 269 178 292 223 176 147 150 86 30 113 214 126 172 231 98 291 210 238 228 202 191 184 182 178 202 191 164 199 217 258 103 220 215 230 186 257 263 227 173 184 172 180 172 181 172 185 182 167 169 174 179 167 186
173 221 185 157 156 148 147 170 219 178 206 208 206 193 227 217 257 245 243 221 214 233 180 199 204 201 200 216 183 184 179 204 216 201 237 212 225 201 271 153 162 151 144 187 192 233 161 159 172 248 215 242 238 229 61 145 163 210 175 213 182 194 148 195 253 233 36 242 124 248 284 276 145 165 170 163 167 175 171 161 172 166 171 175 176 168 186 187
204 219 22 158 167 164 157 232 192 199 227 232 272 288 267 280 250 211 212 190 216 210 227 213 200 200 239 204 174 217 179 244 178 202 198 200 227 206 247 169 133 142 94 335 48 258 106 209 232 266 306 316 19 81 27 34 74 316 259 171 156 200 199 209 224 191 201 101 191 244 234 265 19 350 171 150 156 162 161 161 162 170 174 171 160 181 199 199
194 162 148 248 190 202 171 209 200 209 226 257 221 245 222 242 237 239 210 202 196 159 203 210 308 210 240 163 183 223 173 263 239 205 256 193 233 102 303 168 163 171 156 217 155 210 116 242 155 293 318 265 163 3 342 30 42 233 204 204 212 221 221 244 40 70 250 223 216 235 254 266 120 208 137 148 158 172 167 184 157 159 172 169 175 194 194 199
100 105 142 166 193 211 209 208 195 199 217 217 219 239 235 239 227 221 184 214 188 167 169 233 216 131 215 162 199 208 200 207 269 228 171 197 222 352 326 158 252 186 172 307 161 166 196 182 140 217 257 287 292 287 275 218 217 218 230 196 197 201 188 141 235 194 223 245 199 233 247 255 143 191 171 185 186 180 162 160 159 153 167 177 187 196 193 189
186 227 156 161 181 223 268 18 340 215 193 202 232 238 227 234 254 201 186 225 186 203 207 193 152 175 204 148 214 217 233 227 208 226 152 234 235 313 215 331 37 213 194 132 186 149 193 232 203 213 223 245 253 260 86 116 95 206 224 197 208 198 197 206 195 144 226 234 226 237 227 257 231 208 203 198 195 195 168 167 164 172 184 185 181 172 156 84
140 226 163 187 134 226 228 200 222 172 220 181 219 192 218 222 222 255 186 223 201 194 226 215 185 168 216 166 211 233 229 217 239 246 223 201 257 211 322 165 345 126 139 131 171 84 80 236 230 217 233 244 249 262 238 142 248 246 214 212 202 191 203 206 199 231 170 72 257 251 231 242 257 239 211 206 213 205 195 173 181 181 184 175 161 147 123 36
221 211 186 183 174 193 203 217 210 221 232 210 242 258 242 208 198 218 187 216 171 196 205 288 215 212 180 191 201 234 223 195 186 223 237 242 138 239 38 169 208 220 171 204 290 190 168 231 242 195 242 248 254 264 266 261 252 261 255 208 204 205 211 210 222 232 194 206 242 258 228 220 248 246 237 213 213 209 184 188 186 174 156 129 119 83 34 320
208 23 211 163 222 193 204 196 192 207 223 213 240 232 243 224 212 204 170 186 212 220 198 227 219 207 206 206 202 234 190 130 234 229 215 217 216 147 216 336 255 205 185 164 174 172 80 244 255 191 254 259 258 256 258 254 264 267 255 220 223 219 217 220 230 233 223 238 246 260 267 263 259 246 240 206 197 175 181 162 139 137 153 155 146 152 236 245
199 185 202 189 212 206 186 185 196 203 222 212 221 229 228 220 230 208 218 175 212 224 198 224 232 197 206 214 212 225 216 198 200 224 209 201 244 173 219 194 134 68 170 196 147 272 163 258 129 162 252 262 264 251 246 246 251 262 260 232 228 234 233 227 234 243 236 247 251 253 260 268 265 252 251 217 159 141 135 158 170 167 152 158 154 184 217 133
189 204 149 161 200 212 191 175 191 201 216 217 222 234 231 219 232 200 218 207 214 195 173 214 222 222 211 219 220 227 228 208 213 232 189 174 217 197 172 252 150 159 175 170 146 259 203 260 69 144 227 269 291 209 238 251 261 261 268 246 228 228 237 234 225 230 218 233 242 254 257 255 260 45 211 158 153 157 171 172 164 162 162 150 163 192 147 123
234 146 198 140 218 187 210 182 198 173 227 221 210 213 217 221 223 185 234 238 242 212 189 209 220 218 219 221 226 226 224 219 227 232 186 208 333 151 213 185 167 165 168 188 164 170 195 159 190 186 162 251 48 91 73 56 301 279 253 243 219 223 230 239 245 239 229 227 240 240 238 241 253 148 149 170 165 183 170 168 158 161 170 159 173 181 146 146